Volver al catálogo

COSMOS 1275 DEB

ActivoPO
NORAD 12674·DEBRIS·🇷🇺 Russia

Lanzado Jun 4, 1981 desde Plesetsk Cosmodrome

Loading…

Próximos Pases (próximas 24 horas)

TLE

ActualizadoSource: Space-Track

Época: Sep 14, 2026, 10:11 UTC

1 12674U 81053AE  26257.42472583  .00000437  00000-0  42292-3 0  9990
2 12674  82.9344 300.1247 0101762  94.1608 280.7259 13.75212014252091

Sigue COSMOS 1275 DEB en tiempo real con AllMySat

Download on the App Store